User: anonymous   Login
Location: Unspecified
(0.0000°N, 0.0000°E)
Time: 23:04:19
(UTC+00:00)
Language:

TBA - TO BE ASSIGNED - Orbit

View from above orbital plane
View from above orbital plane
View from above satellite
View from above satellite

Ground track
Ground track

The orbit is defined by the following mean orbital elements,

1 68470U          26145.37791182 +.00000000 +00000-0 +28973-3 0 00006
2 68470  97.4461 104.0334 0008235 136.0532 224.1358 15.17130097    00
Epoch (UTC): 25 May 2026 09:04:11
Eccentricity: 0.0008235
inclination: 97.4461°
perigee height: 509 km
apogee height: 520 km
right ascension of ascending node: 104.0334°
argument of perigee: 136.0532°
revolutions per day: 15.17130097
mean anomaly at epoch: 224.1358°

The dashed part of the orbit path shows where the satellite is in the earth's shadow,  

DLR